sat.trackr.live / text

‹ back to catalog

STARLINK-31009

NORAD 58530 · 2023-191Y

PAYLOAD ACTIVE UNKNOWN

§ Identity

Operator
Country
US
Launch date
2023-12-07
Launch site
AFETR
Launch vehicle
Mass (kg)
RCS (m²)

Purposes: comms

External: N2YO · Heavens-Above · Gunter

§ Orbital elements

Epoch: 2026-09-20T21:09:30.848256Z

Period
94.27 min
Inclination
43.0060°
Eccentricity
0.0000858
Mean motion
15.27599965 rev/d
Perigee alt
482.4 km
Apogee alt
483.6 km
Semi-major
6,861.1 km
B*
1.1244e-4
RAAN
81.0661°
Arg perigee
282.6260°
Mean anomaly
77.4496°
Rev number
15,534

§ Raw data

STARLINK-310091 58530U 23191Y   26263.88160704  .00002835  00000+0  11244-3 0  99922 58530  43.0060  81.0661 0000858 282.6260  77.4496 15.27599965155348

JSON: /api/v1/satellites/58530 · /tle

For live sub-satellite position, see the globe view (requires WebGL).

§ Visibility from observer

Set your observer location to see the next 7 days of passes ≥ 10°. The values pass through the URL so the page stays shareable.

No JS? Fill the form by hand. The geolocation button needs JavaScript.